This demonstration page uses our WeatherBlox Daily Observations layout. Learn more.

Left ArrowRight Arrow

38.88101, -77.10428

Hourly Observations for September 29, 2016

Temp ( °F °C ) Dew Point ( °F °C ) Humidity (%) Winds ( mph kmh ) Pressure ( in mb ) Visibility ( mi km ) Precip ( " mm )
12:14 am 00:14 Cloudy with Nearby Thunderstorms 70 21 70 21 100 100 E 13 20 30.03 1017 10 16 N/A
12:52 am 00:52 Cloudy with Nearby Thunderstorms 70 21.1 68 20 93 93 E 13 20 30.03 1017 10 16 0.01 0.25
1:07 am 01:07 Cloudy 70 21.1 68 20 93 93 E 15 24 30.03 1017 10 16 N/A
1:17 am 01:17 Cloudy with Strong Thunderstorms 70 21.1 68 20 93 93 E 13 20 30.03 1017 7 11 0.01 0.25
1:34 am 01:34 Cloudy with Nearby Thunderstorms 70 21 68 20 94 94 E 14 22 30.03 1017 10 16 N/A
1:44 am 01:44 Cloudy with Nearby Thunderstorms 70 21 68 20 94 94 E 12 19 30.03 1017 8 13 N/A
1:52 am 01:52 Cloudy with Nearby Thunderstorms 69 20.6 68 20 96 96 E 12 19 30.04 1017 6 10 0.08 2.03
2:04 am 02:04 Cloudy with Light Rain 70 21 68 20 94 94 E 10 17 30.03 1017 10 16 N/A
2:22 am 02:22 Cloudy with Light Rain 70 21 68 20 94 94 E 12 19 30.06 1018 10 16 N/A
2:52 am 02:52 Cloudy with Light Rain 69 20.6 67 19.4 93 93 E 12 19 30.05 1018 9 14 0.13 3.30
3:34 am 03:34 Cloudy with Heavy Rain 68 20 68 20 100 100 E 10 17 30.06 1018 3 5 N/A
3:52 am 03:52 Cloudy with Heavy Rain 68 20 67 19.4 96 96 E 17 28 30.05 1018 3 5 0.31 7.87
4:52 am 04:52 Cloudy with Light Rain 68 20 67 19.4 96 96 E 22 35 30.04 1017 9 14 0.19 4.83
5:06 am 05:06 Cloudy 68 20 66 19 94 94 E 22 35 30.03 1017 10 16 N/A
5:52 am 05:52 Cloudy with Light Rain 68 20 67 19.4 96 96 E 25 41 30.04 1017 10 16 0.01 0.25
6:00 am 06:00 Mostly Cloudy with Nearby Thunderstorms 68 20 66 19 94 94 E 23 37 30.06 1018 10 16 N/A
6:19 am 06:19 Cloudy with Nearby Thunderstorms 68 20 67 19.4 96 96 E 20 31 30.06 1018 10 16 0.01 0.25
6:24 am 06:24 Cloudy with Thunderstorms 70 21 66 19 88 88 E 21 33 30.06 1018 10 16 N/A
6:52 am 06:52 Cloudy with Thunderstorms 68 20 67 19.4 96 96 E 15 24 30.09 1019 10 16 0.02 0.51
7:05 am 07:05 Cloudy with Nearby Thunderstorms 68 20 67 19.4 96 96 ENE 18 30 30.09 1019 7 11 0.01 0.25
7:27 am 07:27 Cloudy with Light Rain 68 20 67 19.4 96 96 E 17 28 30.09 1019 7 11 0.03 0.76
7:52 am 07:52 Cloudy with Light Rain 69 20.6 67 19.4 93 93 E 20 31 30.06 1018 5 8 0.07 1.78
8:52 am 08:52 Cloudy with Light Rain 70 21.1 68 20 93 93 ENE 12 19 30.11 1020 10 16 0.02 0.51
8:59 am 08:59 Cloudy with Light Rain 70 21.1 68 20 93 93 ENE 10 17 30.12 1020 10 16 N/A
9:15 am 09:15 Cloudy 70 21.1 68 20 93 93 E 13 20 30.12 1020 10 16 N/A
9:52 am 09:52 Cloudy 70 21.1 68 20 93 93 E 15 24 30.13 1020 10 16 N/A
10:23 am 10:23 Cloudy with Light Rain 70 21.1 68 20 93 93 E 20 31 30.15 1021 4 6 N/A
10:52 am 10:52 Cloudy with Light Rain 70 21.1 68 20 93 93 E 16 26 30.14 1021 4 6 N/A
11:52 am 11:52 Cloudy with Mist and Fog 70 21.1 68 20 93 93 E 18 30 30.14 1021 5 8 N/A
12:52 pm 12:52 Cloudy 70 21.1 68 20 93 93 E 20 31 30.15 1021 8 13 N/A
1:30 pm 13:30 Cloudy with Light Rain 70 21 68 20 94 94 E 21 33 30.15 1021 3 5 N/A
1:33 pm 13:33 Cloudy with Light Rain 70 21.1 68 20 93 93 E 15 24 30.15 1021 3 4 N/A
1:48 pm 13:48 Cloudy with Mist and Fog 70 21 70 21 100 100 E 13 20 30.15 1021 3 5 N/A
1:52 pm 13:52 Cloudy with Mist and Fog 70 21.1 69 20.6 97 97 E 14 22 30.14 1021 3 5 N/A
2:08 pm 14:08 Cloudy with Light Rain 70 21 68 20 94 94 E 15 24 30.15 1021 4 6 N/A
2:52 pm 14:52 Cloudy with Drizzle 70 21.1 68 20 93 93 ENE 15 24 30.13 1020 5 8 N/A
3:12 pm 15:12 Cloudy with Drizzle 70 21 68 20 94 94 E 15 24 30.15 1021 5 8 N/A
3:35 pm 15:35 Cloudy with Drizzle 69 20.6 67 19.4 93 93 E 16 26 30.15 1021 7 11 N/A
3:52 pm 15:52 Cloudy with Drizzle 69 20.6 67 19.4 93 93 ENE 13 20 30.14 1021 7 11 N/A
4:52 pm 16:52 Cloudy 69 20.6 67 19.4 93 93 ENE 13 20 30.14 1021 10 16 N/A
5:52 pm 17:52 Cloudy 68 20 66 18.9 93 93 ENE 14 22 30.15 1021 10 16 N/A
6:52 pm 18:52 Cloudy 68 20 66 18.9 93 93 E 13 20 30.15 1021 10 16 N/A
7:06 pm 19:06 Cloudy with Light Rain 66 19 66 19 100 100 E 17 28 30.15 1021 3 5 N/A
7:29 pm 19:29 Cloudy with Mist and Fog 67 19.4 66 18.9 97 97 ENE 13 20 30.15 1021 6 10 0.04 1.02
7:52 pm 19:52 Cloudy with Drizzle 67 19.4 65 18.3 93 93 ENE 20 31 30.15 1021 5 8 0.04 1.02
8:52 pm 20:52 Cloudy with Drizzle 66 18.9 65 18.3 96 96 ENE 16 26 30.16 1021 4 6 0.03 0.76
9:44 pm 21:44 Cloudy with Light Rain 66 19 64 18 94 94 ENE 15 24 30.18 1022 10 16 N/A
9:52 pm 21:52 Cloudy with Light Rain 66 18.9 65 18.3 96 96 ENE 16 26 30.17 1022 10 16 0.02 0.51
10:10 pm 22:10 Cloudy with Rain 66 19 64 18 94 94 ENE 16 26 30.15 1021 3 5 N/A
10:17 pm 22:17 Cloudy with Light Rain 66 18.9 65 18.3 96 96 ENE 20 31 30.15 1021 4 6 0.07 1.78
10:52 pm 22:52 Cloudy 66 18.9 64 17.8 93 93 ENE 14 22 30.16 1021 10 16 0.08 2.03
11:52 pm 23:52 Cloudy with Light Rain 65 18.3 64 17.8 97 97 NE 14 22 30.16 1021 9 14 0.01 0.25

Powered by AerisWeather